Home   Weather   Navi Mumbai   Past weeks

Flag for India Past Weather in Navi Mumbai, Maharashtra, India — Yesterday and Last 2 Weeks

Now
82 °F

Passing clouds.


Feels Like: 91 °F
Forecast: 78 / 88 °F
Wind: 6 mph from Northwest

Location: Mumbai / Santacruz

Current Time: Sep 27, 2016 at 10:45:42 PM

Latest Report: Sep 27, 2016 at 10:00 PM


Visibility: 2 mi

Pressure: 29.83 "Hg

Humidity: 84%

Dew Point: 77 °F

Location of Navi MumbaiLocation

Past Weather in Navi Mumbai — Graph

°F

Navi Mumbai Temperature Yesterday

Maximum temperature yesterday: 88 °F (at 1:30 PM)
Minimum temperature yesterday: 81 °F (at 2:30 AM)
Average temperature yesterday: 84 °F

High & Low Weather Summary for the Past Weeks

 TemperatureHumidityPressure
High88 °F (Sep 14, 1:30 PM)100% (Sep 15, 12:00 PM)29.86 "Hg (Sep 15, 12:00 PM)
Low75 °F (Sep 20, 4:00 PM)66% (Sep 14, 1:30 PM)29.59 "Hg (Sep 17, 2:30 PM)
Average81 °F87%29.74 "Hg
* Reported Sep 12 9:30 PM — Sep 27 9:30 PM, Navi Mumbai, Weather by CustomWeather, © 2016

Note: Actual official high and low records may vary slightly from our data, if they occured in-between our weather recording intervals... More about our weather records

Advertising

Navi Mumbai Weather History for the Previous 24 Hours

Scroll right to see more
 ConditionsComfort  
Time TempWeatherWind HumidityBarometerVisibility
9:30 PM
Tue, Sep 27
82 °FPassing clouds.6 mph84%29.83 "Hg1 mi
9:00 PM82 °FPassing clouds.7 mph84%29.83 "Hg1 mi
8:30 PM82 °FPartly cloudy.7 mph84%29.83 "Hg1 mi
8:00 PM82 °FPartly cloudy.6 mph84%29.83 "Hg1 mi
7:30 PM82 °FPartly cloudy.7 mph84%29.80 "Hg1 mi
7:00 PM82 °FPartly cloudy.8 mph84%29.80 "Hg1 mi
6:30 PM82 °FScattered clouds.10 mph84%29.77 "Hg2 mi
6:00 PM84 °FScattered clouds.10 mph79%29.77 "Hg2 mi
5:30 PM84 °FScattered clouds.12 mph79%29.77 "Hg2 mi
5:00 PM82 °FBroken clouds.9 mph84%29.74 "Hg2 mi
4:30 PM84 °FBroken clouds.12 mph79%29.74 "Hg2 mi
4:00 PM84 °FBroken clouds.8 mph79%29.77 "Hg2 mi
3:30 PM84 °FBroken clouds.13 mph79%29.77 "Hg2 mi
3:00 PM84 °FBroken clouds.9 mph79%29.77 "Hg2 mi
2:30 PM84 °FBroken clouds.9 mph79%29.77 "Hg2 mi
2:00 PM82 °FBroken clouds.10 mph84%29.80 "Hg1 mi
1:30 PM82 °FBroken clouds.12 mph84%29.80 "Hg1 mi
1:00 PM82 °FLight rain. Broken clouds.9 mph84%29.80 "Hg1 mi
12:30 PM84 °FLight rain. Broken clouds.12 mph79%29.83 "Hg1 mi
12:00 PM84 °FBroken clouds.12 mph79%29.83 "Hg2 mi
11:30 AM84 °FBroken clouds.12 mph79%29.83 "Hg2 mi
11:00 AM84 °FScattered clouds.13 mph79%29.86 "Hg2 mi
10:30 AM84 °FBroken clouds.12 mph79%29.86 "Hg2 mi
10:00 AM84 °FBroken clouds.10 mph79%29.86 "Hg2 mi
9:30 AM84 °FScattered clouds.10 mph79%29.86 "Hg2 mi
9:00 AM84 °FScattered clouds.8 mph79%29.86 "Hg2 mi
8:30 AM82 °FScattered clouds.9 mph84%29.83 "Hg2 mi
8:00 AM82 °FScattered clouds.6 mph84%29.83 "Hg2 mi
7:30 AM82 °FScattered clouds.5 mph84%29.83 "Hg2 mi
7:00 AM82 °FBroken clouds.No wind84%29.80 "Hg2 mi
6:30 AM82 °FPartly cloudy.5 mph84%29.80 "Hg2 mi
6:00 AM82 °FPartly cloudy.5 mph84%29.80 "Hg2 mi
5:30 AM82 °FPartly cloudy.6 mph84%29.80 "Hg2 mi
5:00 AM81 °FPartly cloudy.6 mph89%29.77 "Hg2 mi
4:30 AM82 °FPartly cloudy.7 mph89%29.77 "Hg2 mi
4:00 AM81 °FPartly cloudy.5 mph94%29.77 "Hg2 mi
3:30 AM82 °FPartly cloudy.5 mph84%29.77 "Hg2 mi
3:00 AM82 °FPartly cloudy.5 mph89%29.77 "Hg2 mi
2:30 AM82 °FPassing clouds.5 mph84%29.77 "Hg2 mi
2:00 AM82 °FPassing clouds.6 mph84%29.80 "Hg2 mi
1:30 AM82 °FPassing clouds.7 mph89%29.80 "Hg2 mi
1:00 AM82 °FPassing clouds.7 mph89%29.80 "Hg2 mi
11:30 PM
Mon, Sep 26
82 °FPassing clouds.6 mph84%29.83 "Hg2 mi
11:00 PM82 °FPassing clouds.6 mph84%29.83 "Hg2 mi
10:30 PM82 °FPassing clouds.5 mph84%29.83 "Hg2 mi
10:00 PM84 °FPassing clouds.6 mph79%29.83 "Hg2 mi
Weather by CustomWeather, © 2016

See weather overviewHow to use our weather pages